This is the latest recevied weather packets stored in our database for station/object KK7AZD-13. If no packets are shown the sender has not sent any weather packets the latest 10 day(s).
| Time | Temp. | Humidity | Pressure | Rain* | Wind** | Luminosity | Snow |
|---|---|---|---|---|---|---|---|
| 1777403361 | 13.33° C | 36% | 1020.1 hPa | 0 mm | - | 837 W/m² | - |
| 1777402459 | 12.22° C | 40% | 1020.5 hPa | 0 mm | - | 872 W/m² | - |
| 1777401558 | 12.78° C | 40% | 1020.5 hPa | 0 mm | - | 897 W/m² | - |
| 1777400657 | 11.67° C | 47% | 1020.4 hPa | 0 mm | - | 935 W/m² | - |
| 1777399754 | 11.11° C | 47% | 1020.3 hPa | 0 mm | - | 941 W/m² | - |
| 1777398851 | 11.11° C | 51% | 1020.5 hPa | 0 mm | - | 888 W/m² | - |
| 1777397948 | 10.56° C | 53% | 1020.6 hPa | 0 mm | - | 812 W/m² | - |
| 1777397048 | 10° C | 56% | 1020.5 hPa | 0 mm | - | 737 W/m² | - |
| 1777396144 | 8.89° C | 57% | 1020.5 hPa | 0 mm | - | 683 W/m² | - |
| 1777395244 | 8.89° C | 55% | 1020.6 hPa | 0 mm | - | 656 W/m² | - |
| 1777394339 | 8.33° C | 63% | 1020.8 hPa | 0 mm | - | 621 W/m² | - |
| 1777393437 | 7.78° C | 69% | 1020.5 hPa | 0 mm | - | 533 W/m² | - |
| 1777392537 | 7.22° C | 67% | 1020.9 hPa | 0 mm | - | 430 W/m² | - |
| 1777391635 | 6.67° C | 69% | 1020.7 hPa | 0 mm | - | 358 W/m² | - |
| 1777390730 | 6.11° C | 71% | 1020.8 hPa | 0 mm | - | 314 W/m² | - |
| 1777389826 | 5° C | 75% | 1021 hPa | 0 mm | - | 135 W/m² | - |
| 1777388924 | 3.89° C | 79% | 1021 hPa | 0 mm | - | 148 W/m² | - |
| 1777388022 | 2.22° C | 82% | 1020.8 hPa | 0 mm | - | 164 W/m² | - |
| 1777387120 | 1.67° C | 84% | 1020.8 hPa | 0 mm | - | 98 W/m² | - |
| 1777386217 | 1.67° C | 85% | 1020.8 hPa | 0 mm | - | 101 W/m² | - |
| 1777385314 | 0° C | 90% | 1020.6 hPa | 0 mm | - | 34 W/m² | - |
| 1777384412 | -1.11° C | 93% | 1020.1 hPa | 0 mm | - | 34 W/m² | - |
| 1777383512 | -1.67° C | 95% | 1020.3 hPa | 0 mm | - | 19 W/m² | - |
| 1777382613 | -2.22° C | 95% | 1020 hPa | 0 mm | - | 9 W/m² | - |
| 1777381712 | -2.22° C | 95% | 1019.9 hPa | 0 mm | - | 2 W/m² | - |
* Rain latest hour (hover to see other rain measurements)
** Current wind speed in m/s (hover to see current wind gust speed)